Regional Weather Roundup
Issued by NWS

Home | Current Version | Previous Version | Text Only | Print | Product List | Glossary Off
Versions: 1 2 3 4 5 6 7 8 9 10 11 12 13 14 15 16 17 18 19 20 21 22 23 24 25 26 27 28 29 30 31 32 33 34 35 36 37 38 39 40 41 42 43 44 45 46 47 48 49 50

000
ASUS43 KMKX 130400
RWRWI

WISCONSIN REGIONAL WEATHER ROUNDUP
NATIONAL WEATHER SERVICE MILWAUKEE/SULLIVAN WI
1100 PM CDT SAT JUL 12 2014

NOTE: "FAIR" INDICATES FEW OR NO CLOUDS BELOW 12,000 FEET WITH NO
SIGNIFICANT WEATHER AND/OR OBSTRUCTIONS TO VISIBILITY.

WIZ001-002-006>008-014>016-023>028-130500-
NORTHWEST WISCONSIN

CITY           SKY/WX    TMP DP  RH WIND       PRES   REMARKS
SUPERIOR ARPT  CLEAR     65  60  86 SW7       29.84F
ASHLAND        PTCLDY    65  60  84 SW8       29.85F
HAYWARD        PTCLDY    66  62  87 SW6       29.89F
SIREN          CLEAR     65  62  90 SW6       29.91S
RICE LAKE      PTCLDY    65  63  93 SW5       29.93F
LADYSMITH      CLOUDY    66  64  95 SW7       29.93S
EAU CLAIRE     NOT AVBL
MENOMONIE      MOCLDY    67  65  94 SW5       29.94R
NEW RICHMOND   PTCLDY    66  66  97 SW5       29.94F
OSCEOLA        PTCLDY    66  64  93 SW6       29.96S
$$

WIZ003>005-009-010-017-018-130500-
NORTH CENTRAL WISCONSIN

CITY           SKY/WX    TMP DP  RH WIND       PRES   REMARKS
WOODRUFF       PTCLDY    63  60  90 W3        29.89F
RHINELANDER    MOCLDY    61  60  97 W7        29.90S
EAGLE RIVER    CLOUDY    63  63  99 W9        29.88F
LAND O LAKES   CLOUDY    65  63  91 W3        29.89S
PHILLIPS       CLOUDY    63  62  96 SW8       29.90S
TOMAHAWK         N/A     57  56  96 CALM      29.91R
MEDFORD        PTCLDY    61  60  96 SW3       29.90S
MERRILL        CLEAR     60  60 100 SW3       29.88F FOG
$$

WIZ029-030-035-036-043>047-130500-
CENTRAL WISCONSIN

CITY           SKY/WX    TMP DP  RH WIND       PRES   REMARKS
WAUSAU         PTCLDY    63  61  93 CALM      29.87F
MOSINEE        PTCLDY    61  61 100 W5        29.90F
MARSHFIELD     CLEAR     61  60  97 W6        29.90F
STEVENS POINT  PTCLDY    63  62  96 W3        29.90R
WAUPACA        MOCLDY    67  65  93 W7        29.88R
WAUTOMA        NOT AVBL
WISC RAPIDS    PTCLDY    63  62  97 SW5       29.91F
CAMP DOUGLAS   NOT AVBL
$$

WIZ011>013-019>022-031-037>040-048>050-130500-
NORTHEAST WISCONSIN

CITY           SKY/WX    TMP DP  RH WIND       PRES   REMARKS
ANTIGO         PTCLDY    58  58 100 W5        29.88F
STURGEON BAY   CLOUDY    64  61  88 W9        29.83S
GREEN BAY      CLOUDY    66  63  90 W5        29.84F
MANITOWOC      NOT AVBL
APPLETON       MOCLDY    66  63  88 SW6       29.86F
CLINTONVILLE   MOCLDY    64  63  94 W3        29.86S
OSHKOSH        CLOUDY    67  65  93 W3        29.85F
$$

WIZ032>034-041-042-053>061-130500-
SOUTHWEST WISCONSIN

CITY           SKY/WX    TMP DP  RH WIND       PRES   REMARKS
LA CROSSE      CLEAR     65  63  93 SW3       29.94S
SPARTA         CLOUDY    63  62  97 CALM      29.95S
VIROQUA        CLOUDY    64  64 100 NW8       29.95F
BOSCOBEL       PTCLDY    66  63  90 CALM      29.93R
PRAIRIE DU CHI PTCLDY    66  64  93 W7        29.94R
PLATTEVILLE    FAIR      66  64  93 NW6       29.93R
$$

WIZ056-057-062-063-064-067-068-130500-
SOUTH CENTRAL WISCONSIN

CITY           SKY/WX    TMP DP  RH WIND       PRES   REMARKS
BARABOO/DELLS  PTCLDY    63  61  93 CALM      29.91R FOG
LONE ROCK      NOT AVBL
WATERTOWN      LGT RAIN  67  66  96 N10G18    29.89R
MADISON        CLOUDY    67  64  90 NE5       29.89S
MIDDLETON      CLOUDY    68  68  99 CALM      29.90S
MONROE         CLOUDY    68  68 100 W6        29.91S
JANESVILLE     LGT RAIN  70  68  94 W15       29.88R
$$

WIZ051-052-058>065-066-070>072-130500-
SOUTHEAST WISCONSIN

CITY           SKY/WX    TMP DP  RH WIND       PRES   REMARKS
MILWAUKEE      TSTM      70  68  93 NW8       29.85S
WAUKESHA       LGT RAIN  66  64  94 SW5       29.88R
MILWAUKEE/TIMM RAIN      70  64  83 S3        29.86S
RACINE         HVY RAIN  71  69  93 VRB3      29.86R FOG
BURLINGTON     RAIN      69  68  97 NW16G23   29.88R
KENOSHA        TSTM      71  70  96 W10G24    29.87R VSB 1
FOND DU LAC    LGT RAIN  67  65  93 S3        29.86F
SHEBOYGAN      CLOUDY    67  64  90 NW3       29.86F
WEST BEND      LGT RAIN  64  63  94 N8        29.87F
JUNEAU         HVY RAIN  66  50  55 NW9       29.90S
$$

LSZ147-162-130500-
LAKE SUPERIOR

STATION/POSITION TIME  TEMP    WIND        PRES    WAVE
                       AIR SEA DIR/SP/G            HT/PER
                 (UTC) (F)     (DEG/KT/KT) (MB)    (FT/S)
W MID LAKE BUOY  0250   48 38  200/  6/  6 1009.5F   0
PORT WING        0300   67     190/  6/  8 1010.5
SAXON HARBOR     0340          190/  2/  6 1010.5F
$$

LMZ867-665-643>646-130500-
LAKE MICHIGAN

STATION/POSITION TIME  TEMP    WIND        PRES    WAVE
                       AIR SEA DIR/SP/G            HT/PER
                 (UTC) (F)     (DEG/KT/KT) (MB)    (FT/S)
N MID LAKE BUOY  0250   59 58  230/ 10/ 12 1008.9F   1/ 3
NORTHPORT PIER   0300   67     290/  6/  8 1009.1F
SISTER BAY       0325   67        CALM       N/A
ALGOMA LAKESHORE 0305             CALM       N/A
KEWAUNEE LAKESHO 0300   67     330/  2/  4 1011.7R
SHEBOYGAN LAKESH 0300   69     340/ 15/ 18 1011.3R
PORT WASHINGTON  0300   64     210/  5/ 11 1011.5R
MILWAUKEE LAKESH 0300   67     160/  5/  6   N/A
S MID LAKE BUOY  0250   64 61  160/ 10/ 12 1010.0F   1/ 4
KENOSHA   LAKESH 0300   66     180/ 14/ 18   N/A
$$

TC  - TEMPERATURE IN CELSIUS
VSB - VISIBILITY IN STATUTE MILES
WCI - WIND CHILL INDEX
HX  - HEAT INDEX




USA.gov is the U.S. government's official web portal to all federal, state and local government web resources and services.